Volver al catálogo

STARLINK-34546

ActivoComunicacionesVLEO
NORAD 64718·PAYLOAD·🇺🇸 United States

Lanzado Jun 28, 2025 desde Vandenberg Space Force Base

Loading…

Próximos Pases (próximas 24 horas)

TLE

ActualizadoSource: CelesTrak SupGP

Época: Sep 15, 2026, 03:08 UTC

1 64718C 25142Y   26258.13104167 -.00044749  00000+0 -15569-2 0  2581
2 64718  70.0013 195.2347 0003137 274.7365 195.0030 15.29596919    13

Sigue STARLINK-34546 en tiempo real con AllMySat

Download on the App Store